Location: Recife
(8.0585°S, 34.8848°W)
Time: 12:34:37
(UTC-03:00)

Tiros 1 - Pass Details

Date: 20 April 2026
Orbit: 618 x 648 km, 48.4° (Epoch: 11 May)

Event Time Altitude Azimuth Distance (km) Brightness Sun altitude
Rises 17:44:59 0° 316° (NW) 2,936 11.5 -8.1°
Reaches altitude 10° 17:47:19 10° 314° (NW) 2,033 10.7 -8.7°
Maximum altitude 17:51:58 69° 231° (SW) 693 7.5 -9.8°
Drops below altitude 10° 17:56:41 10° 147° (SSE) 2,048 9.3 -10.9°
Enters shadow 17:57:41 - 146° (SE) 2,435 9.7 -11.2°
Sets 17:59:03 0° 144° (SE) 2,960 - -11.5°
